[[{"header":{"parameterUnit":"m.s-1","parameterCategory":2,"la1":30.2991,"la2":30.254,"lo1":-89.0895,"lo2":-89.0444,"dy":0.0017,"dx":0.0017,"nx":28,"ny":28,"refTime":"2024-03-29T09:00:00:Z","depth":"0","parameterNumber":2,"parameterNumberName":"U-component_of_CURRENTS"},"data":[0,0,0,0,0,0,0,0,0,0,0,0,0,0,0,0,0,0,0,0,0,0,0,0,0,0,0,0,0,0,0,0,0,0,0,0,0,0,0,0,0,0,0,0,0,0,0,0,0,0,0,0,0,0,0,0,0,0,-0.3163,-0.3164,0,-0.3195,-0.3194,-0.3194,-0.3146,-0.3145,-0.3144,-0.3143,-0.3011,-0.3008,-0.3005,0,0,0,0,0,0,0,0,0,0,0,0,0,-0.289,-0.2895,-0.3163,-0.3164,-0.3165,-0.3195,-0.3194,-0.3194,-0.3146,-0.3145,-0.3143,-0.3142,-0.3011,-0.3008,-0.3005,0,0,0,0,0,0,0,0,0,0,0,0,0,-0.2967,-0.2897,-0.3162,-0.315,-0.315,-0.3195,-0.3194,-0.3194,-0.3146,-0.3145,-0.3143,-0.3142,-0.3012,-0.3009,-0.3005,-0.3011,0,0,-0.2993,-0.2991,0,0,0,0,0,0,0,0,-0.2963,-0.2976,-0.3151,-0.3151,-0.3151,-0.3171,-0.305,-0.3127,-0.3146,-0.3139,-0.3143,-0.3141,-0.3055,-0.3048,-0.3049,-0.3005,-0.2999,-0.2993,-0.299,-0.2989,-0.2987,0,0,0,0,0,0,0,-0.2958,-0.2973,-0.3168,-0.3152,-0.3152,-0.3085,-0.3095,-0.3064,-0.3096,-0.314,-0.3138,-0.3155,-0.3053,-0.3053,-0.3045,-0.2997,-0.2993,-0.2989,-0.2987,-0.2985,-0.2973,-0.2975,0,0,0,0,0,0,-0.2981,-0.297,-0.3167,-0.3169,-0.306,-0.3092,-0.3103,-0.316,-0.31,-0.3093,-0.3156,-0.3152,-0.306,-0.3049,-0.304,-0.3098,-0.2989,-0.2985,-0.2983,-0.2971,-0.2974,-0.2976,0,0,0,0,0,0,-0.2976,-0.3,-0.3166,-0.3072,-0.309,-0.3101,-0.3163,-0.3162,-0.3167,-0.3116,-0.3103,-0.3164,-0.3058,-0.3045,-0.3027,-0.309,-0.2983,-0.298,-0.2969,-0.2972,-0.2975,-0.3178,0,0,0,0,0,0,-0.2968,-0.2999,-0.3029,-0.3077,-0.3097,-0.3215,-0.3166,-0.3164,-0.3183,-0.3178,-0.3119,-0.3105,-0.3056,-0.3033,-0.3023,-0.3082,-0.2977,-0.2966,-0.297,-0.2974,-0.3169,-0.3188,-0.3204,0,0,0,0,0,-0.2959,-0.3017,-0.3031,-0.3053,-0.3147,-0.3218,-0.3222,-0.3215,-0.3185,-0.3208,-0.3161,-0.3107,-0.305,-0.3032,-0.3019,-0.3079,-0.2964,-0.2969,-0.2974,-0.3161,-0.3184,-0.3203,0,0,0,0,0,0,-0.2904,-0.302,-0.3036,-0.3123,-0.3177,-0.3213,-0.3229,-0.3228,-0.3212,-0.3196,-0.3128,-0.3113,-0.3125,-0.3067,-0.3049,-0.3084,-0.3,-0.3003,-0.3147,-0.3168,-0.3185,-0.3193,-0.2973,0,0,0,0,0,-0.2915,-0.2991,-0.3079,-0.3143,-0.3178,-0.3204,-0.3223,-0.3236,-0.3239,-0.323,-0.3198,-0.3154,-0.3136,-0.3122,-0.3092,-0.3108,-0.302,-0.3136,-0.3154,-0.317,-0.3167,-0.3123,-0.3137,-0.2991,-0.2991,-0.2991,0,0,-0.2886,-0.298,-0.3004,-0.3135,-0.3168,-0.3256,-0.3211,-0.3267,-0.3326,-0.3216,-0.326,-0.3214,-0.3151,-0.3178,-0.3178,-0.3137,-0.3159,-0.3175,-0.319,-0.3177,-0.3129,-0.3143,-0.3156,-0.2994,-0.2993,-0.2993,0,0,-0.2924,-0.2983,-0.3072,-0.3144,-0.3245,-0.3278,-0.3305,-0.3365,-0.3374,-0.3415,-0.3356,-0.3351,-0.3316,-0.3305,-0.3286,-0.3378,-0.3254,-0.3364,-0.3463,-0.3423,-0.3435,-0.3444,-0.3325,-0.3322,-0.3374,-0.3375,-0.3375,0,-0.2899,-0.3044,-0.3096,-0.3224,-0.328,-0.3302,-0.34,-0.3434,-0.3475,-0.3472,-0.3449,-0.3412,-0.3386,-0.3402,-0.3453,-0.3423,-0.3337,-0.3396,-0.3447,-0.3455,-0.3461,-0.3336,-0.333,-0.3385,-0.3384,-0.3383,-0.3382,0,-0.3022,-0.3132,-0.319,-0.3367,-0.3427,-0.3513,-0.3587,-0.3622,-0.3625,-0.3637,-0.3646,-0.3611,-0.3569,-0.3593,-0.3559,-0.3597,-0.3499,-0.3478,-0.34,-0.3488,-0.335,-0.334,-0.34,-0.3396,-0.3393,-0.3391,0,0,-0.2974,-0.3233,-0.3248,-0.3343,-0.3511,-0.3568,-0.3669,-0.3746,-0.3759,-0.3796,-0.3797,-0.3831,-0.3769,-0.3744,-0.3703,-0.3704,-0.3699,-0.3625,-0.3618,-0.3514,-0.3538,-0.3455,-0.3434,-0.3683,-0.3684,-0.3684,-0.3415,0,-0.3054,-0.3305,-0.3403,-0.3572,-0.369,-0.3742,-0.3816,-0.387,-0.388,-0.3883,-0.3859,-0.3842,-0.3839,-0.3805,-0.3817,-0.3715,-0.3686,-0.3769,-0.3459,-0.3448,-0.3373,-0.3427,-0.3316,-0.3067,-0.3404,-0.3402,-0.3401,0,-0.3131,-0.3301,-0.3501,-0.3679,-0.3722,-0.3804,-0.387,-0.3944,-0.3956,-0.3945,-0.3932,-0.3882,-0.388,-0.3861,-0.3746,-0.3787,-0.3684,-0.3614,-0.3601,-0.3446,-0.335,-0.3037,-0.3035,-0.3008,-0.3384,-0.3385,-0.3387,0,-0.3069,-0.3338,-0.3493,-0.3569,-0.3779,-0.382,-0.3892,-0.3937,-0.3944,-0.396,-0.3919,-0.3909,-0.3845,-0.3777,-0.3652,-0.3684,-0.3485,-0.3493,-0.3306,-0.3293,-0.3098,-0.307,-0.3042,-0.3408,-0.3409,-0.3409,-0.341,0,-0.3117,-0.3228,-0.3468,-0.3557,-0.3656,-0.3793,-0.3832,-0.3892,-0.3908,-0.3874,-0.392,-0.3855,-0.3828,-0.371,-0.3623,-0.3413,-0.3442,-0.3313,-0.3239,-0.3162,-0.3144,-0.3028,-0.3061,-0.3399,-0.3401,-0.3403,-0.3405,0,-0.303,-0.3204,-0.3378,-0.36,-0.364,-0.3698,-0.3789,-0.3801,-0.3835,-0.3782,-0.3776,-0.377,-0.3629,-0.3548,-0.3392,-0.3326,-0.3102,-0.3082,-0.2962,-0.2883,-0.273,-0.2777,-0.2617,-0.2543,-0.2834,-0.283,-0.2828,0,-0.3019,-0.3115,-0.3357,-0.3414,-0.3512,-0.3602,-0.3635,-0.3733,-0.3722,-0.3699,-0.3644,-0.3545,-0.3408,-0.3162,-0.3063,-0.2857,-0.2887,-0.2657,-0.275,-0.2707,-0.2704,-0.2746,-0.27,-0.2531,-0.2526,-0.2522,-0.2518,0,-0.2971,-0.3053,-0.3191,-0.3316,-0.3385,-0.3449,-0.3503,-0.3474,-0.3531,-0.3478,-0.3359,-0.3257,-0.3067,-0.2851,-0.2666,-0.2555,-0.2621,-0.2567,-0.2562,-0.2509,-0.2509,-0.2404,-0.2678,-0.2482,-0.2485,-0.2488,-0.249,-0.2492,-0.2879,-0.2937,-0.3087,-0.318,-0.3255,-0.3246,-0.3196,-0.3222,-0.3149,-0.2992,-0.3037,-0.2835,-0.273,-0.2466,-0.2353,-0.2201,-0.2299,-0.2158,-0.2215,-0.2259,-0.2231,-0.2409,-0.2135,-0.2137,-0.2138,-0.2139,-0.214,0,-0.274,-0.2819,-0.2924,-0.3005,-0.3,-0.3086,-0.3052,-0.2925,-0.2756,-0.2693,-0.2539,-0.2414,-0.2201,-0.2131,-0.2003,-0.1902,-0.1876,-0.1862,-0.1913,-0.1881,-0.2034,-0.207,-0.1724,-0.1724,-0.1724,-0.1724,-0.1724,-0.1724,-0.2671,-0.2701,-0.2769,-0.2714,-0.274,-0.2611,-0.2537,-0.237,-0.2271,-0.2037,-0.197,-0.1973,-0.1983,-0.2061,-0.1889,-0.178,-0.1754,-0.1685,-0.1723,-0.1873,-0.1907,-0.1939,-0.1982,-0.1623,-0.1623,-0.1497,-0.1496,-0.1496]},{"header":{"parameterUnit":"m.s-1","parameterCategory":2,"la1":30.2991,"la2":30.254,"lo1":-89.0895,"lo2":-89.0444,"dy":0.0017,"dx":0.0017,"nx":28,"ny":28,"refTime":"2024-03-29T09:00:00:Z","depth":"0","parameterNumber":3,"parameterNumberName":"V-component_of_CURRENTS"},"data":[0,0,0,0,0,0,0,0,0,0,0,0,0,0,0,0,0,0,0,0,0,0,0,0,0,0,0,0,0,0,0,0,0,0,0,0,0,0,0,0,0,0,0,0,0,0,0,0,0,0,0,0,0,0,0,0,0,0,0.0587,0.0592,0,0.0949,0.0952,0.0955,0.1063,0.1063,0.1063,0.1062,0.1095,0.1096,0.1097,0,0,0,0,0,0,0,0,0,0,0,0,0,-0.0066,-0.0056,0.0587,0.0593,0.0599,0.0949,0.0952,0.0956,0.1064,0.1063,0.1063,0.1062,0.1094,0.1096,0.1097,0,0,0,0,0,0,0,0,0,0,0,0,0,0.0234,-0.0052,0.0586,0.0707,0.0722,0.0948,0.0952,0.0956,0.1064,0.1063,0.1063,0.1062,0.1094,0.1096,0.1097,0.112,0,0,0.1103,0.1104,0,0,0,0,0,0,0,0,0.0217,0.0255,0.0683,0.0699,0.0717,0.0975,0.0735,0.1,0.1064,0.0917,0.1062,0.1062,0.1035,0.1041,0.1093,0.1122,0.1123,0.1103,0.1104,0.1105,0.1106,0,0,0,0,0,0,0,0.0196,0.0241,0.0714,0.069,0.0711,0.0725,0.0766,0.0786,0.0956,0.093,0.0943,0.1009,0.1039,0.1091,0.1094,0.1124,0.1103,0.1105,0.1106,0.1107,0.1114,0.1113,0,0,0,0,0,0,0.0189,0.0222,0.0703,0.0727,0.0478,0.0739,0.0783,0.0879,0.0964,0.0984,0.1009,0.1013,0.1088,0.1092,0.1095,0.1083,0.1105,0.1107,0.1108,0.1115,0.1114,0.1113,0,0,0,0,0,0,0.0174,0.0229,0.0689,0.0492,0.0554,0.0753,0.0858,0.0887,0.0946,0.103,0.104,0.104,0.1088,0.1092,0.1106,0.1086,0.1108,0.1109,0.1116,0.1115,0.1114,0.1085,0,0,0,0,0,0,0.0154,0.0222,0.0246,0.0493,0.0565,0.0812,0.0862,0.0895,0.0995,0.1003,0.106,0.1063,0.1088,0.1103,0.1108,0.1088,0.1111,0.1117,0.1116,0.1114,0.1087,0.1083,0.1079,0,0,0,0,0,0.013,0.0199,0.0246,0.0303,0.0608,0.0814,0.0849,0.0975,0.0997,0.1022,0.1054,0.1062,0.1095,0.1105,0.111,0.1091,0.1118,0.1116,0.1114,0.1089,0.1084,0.1079,0,0,0,0,0,0,-0.0073,0.0226,0.0281,0.0434,0.0597,0.0838,0.0895,0.0973,0.1029,0.1022,0.1066,0.1072,0.1073,0.1085,0.1095,0.1085,0.1101,0.11,0.108,0.1075,0.1071,0.1052,0.1112,0,0,0,0,0,-0.0103,0.002,0.0283,0.0388,0.0484,0.0676,0.0763,0.0858,0.0973,0.1001,0.1039,0.1059,0.1072,0.1076,0.1092,0.1095,0.1106,0.1079,0.1075,0.1072,0.1058,0.1102,0.1101,0.1106,0.1107,0.1107,0,0,-0.016,0.0024,0.0086,0.0349,0.0493,0.0607,0.0723,0.0877,0.0923,0.0987,0.1017,0.105,0.107,0.1076,0.1075,0.1081,0.1066,0.1069,0.1067,0.1054,0.11,0.11,0.1099,0.1105,0.1105,0.1106,0,0,-0.0177,-0.0032,0.0071,0.0202,0.0435,0.0554,0.0593,0.0819,0.0869,0.0927,0.0968,0.0995,0.1021,0.1044,0.1052,0.1033,0.1048,0.1026,0.0991,0.1034,0.1034,0.1035,0.101,0.1009,0.1021,0.1021,0.1021,0,-0.0269,-0.0089,0.0115,0.024,0.0325,0.052,0.06,0.0694,0.0865,0.0892,0.0914,0.0982,0.1003,0.1016,0.1009,0.1024,0.1032,0.1012,0.1031,0.1032,0.1033,0.1008,0.1007,0.102,0.102,0.102,0.102,0,-0.0201,-0.0087,-0.0011,0.0191,0.0291,0.0403,0.0575,0.0637,0.0707,0.0796,0.084,0.0903,0.094,0.095,0.0972,0.0985,0.098,0.1027,0.1047,0.1031,0.1004,0.1004,0.1017,0.1018,0.1018,0.1019,0,0,-0.0311,-0.0026,-0.0005,0.0051,0.027,0.0368,0.0433,0.0562,0.06,0.0707,0.0746,0.0791,0.0853,0.0865,0.0915,0.0952,0.0959,0.0985,0.0988,0.0964,0.1006,0.0986,0.0983,0.1024,0.1025,0.1025,0.0971,0,-0.0329,-0.0162,-0.0013,0.0067,0.0159,0.0303,0.0343,0.0455,0.0552,0.0627,0.0715,0.0765,0.0813,0.084,0.0886,0.0959,0.0962,0.0965,0.102,0.1019,0.101,0.0985,0.1032,0.0988,0.097,0.097,0.097,0,-0.0304,-0.0199,-0.0112,0.0018,0.007,0.0107,0.0204,0.0277,0.042,0.0493,0.0582,0.0679,0.0745,0.0799,0.0888,0.0893,0.0924,0.0974,0.0975,0.0967,0.1,0.1008,0.0988,0.118,0.097,0.097,0.097,0,-0.0457,-0.0276,-0.0234,-0.0184,-0.0007,0.0006,0.0074,0.0213,0.0272,0.0413,0.0469,0.059,0.0641,0.0736,0.0834,0.0869,0.0922,0.0989,0.0981,0.0978,0.1031,0.1032,0.1211,0.1019,0.1019,0.1019,0.1019,0,-0.0506,-0.0471,-0.0314,-0.0285,-0.0283,-0.0124,-0.01,-0.0001,0.0136,0.0194,0.0378,0.0433,0.0635,0.0711,0.0801,0.0871,0.0888,0.0953,0.0972,0.1015,0.1016,0.1196,0.1275,0.1017,0.1017,0.1018,0.1018,0,-0.0636,-0.0521,-0.0479,-0.0356,-0.0336,-0.0339,-0.0217,-0.0174,-0.0035,0.0048,0.0087,0.0297,0.0397,0.0557,0.0695,0.0802,0.0987,0.0892,0.0892,0.0913,0.1121,0.1195,0.1309,0.1413,0.0902,0.0901,0.0901,0,-0.0666,-0.0655,-0.0578,-0.0576,-0.0525,-0.0494,-0.0457,-0.0298,-0.023,-0.0048,-0.002,0.0112,0.0193,0.0385,0.0612,0.0752,0.0906,0.0878,0.0967,0.1121,0.1219,0.1271,0.1356,0.1005,0.1006,0.1006,0.1006,0,-0.0761,-0.075,-0.0718,-0.0721,-0.0707,-0.0665,-0.0598,-0.0573,-0.0378,-0.0315,-0.0218,-0.0149,0.0089,0.0324,0.0547,0.0654,0.1045,0.0885,0.1085,0.1333,0.1365,0.1477,0.1003,0.1009,0.1008,0.1008,0.1008,0.1008,-0.0854,-0.0881,-0.0852,-0.086,-0.0844,-0.0816,-0.08,-0.0716,-0.0657,-0.054,-0.0434,-0.0317,0.0137,0.0481,0.0635,0.1062,0.1027,0.121,0.1281,0.1315,0.1449,0.0931,0.0945,0.0945,0.0944,0.0944,0.0943,0,-0.0936,-0.0954,-0.0978,-0.0963,-0.0966,-0.0923,-0.0862,-0.0831,-0.0801,-0.0699,-0.0627,-0.0192,0.0213,0.0662,0.1264,0.1491,0.1589,0.1593,0.1739,0.1806,0.1393,0.1438,0.1513,0.1513,0.1513,0.1513,0.1513,0.1512,-0.0973,-0.1025,-0.1032,-0.1065,-0.1057,-0.1042,-0.1018,-0.0984,-0.0894,-0.0747,-0.053,-0.0371,0.0345,0.1336,0.1909,0.1952,0.2196,0.2122,0.2241,0.203,0.2002,0.1976,0.2043,0.2244,0.2245,0.2676,0.268,0.2683]}],[{"header":{"parameterUnit":"m.s-1","parameterCategory":2,"la1":30.2991,"la2":30.254,"lo1":-89.0895,"lo2":-89.0444,"dy":0.0017,"dx":0.0017,"nx":28,"ny":28,"refTime":"2024-03-29T09:00:00:Z","depth":"2","parameterNumber":2,"parameterNumberName":"U-component_of_CURRENTS"},"data":[0,0,0,0,0,0,0,0,0,0,0,0,0,0,0,0,0,0,0,0,0,0,0,0,0,0,0,0,0,0,0,0,0,0,0,0,0,0,0,0,0,0,0,0,0,0,0,0,0,0,0,0,0,0,0,0,0,0,-0.2208,-0.2211,0,-0.2322,-0.2322,-0.2323,-0.2277,-0.2275,-0.2274,-0.2272,-0.2281,-0.2283,-0.2284,0,0,0,0,0,0,0,0,0,0,0,0,0,-0.2183,-0.2181,-0.2208,-0.2211,-0.2213,-0.2322,-0.2322,-0.2323,-0.2277,-0.2275,-0.2273,-0.2272,-0.2281,-0.2283,-0.2285,0,0,0,0,0,0,0,0,0,0,0,0,0,-0.2223,-0.2181,-0.2208,-0.2213,-0.2215,-0.2322,-0.2322,-0.2323,-0.2278,-0.2275,-0.2273,-0.2271,-0.228,-0.2282,-0.2285,-0.2347,0,0,-0.2292,-0.2294,0,0,0,0,0,0,0,0,-0.222,-0.2222,-0.221,-0.2213,-0.2216,-0.2294,-0.2318,-0.233,-0.2278,-0.2241,-0.2272,-0.227,-0.2286,-0.2287,-0.2298,-0.2347,-0.2347,-0.2293,-0.2294,-0.2295,-0.2296,0,0,0,0,0,0,0,-0.2217,-0.2218,-0.2241,-0.2213,-0.2217,-0.229,-0.2289,-0.232,-0.2263,-0.2244,-0.2244,-0.2277,-0.2284,-0.2295,-0.2298,-0.2348,-0.2293,-0.2295,-0.2296,-0.2297,-0.2402,-0.2404,0,0,0,0,0,0,-0.2218,-0.2214,-0.2237,-0.2245,-0.2227,-0.2292,-0.2291,-0.2261,-0.2265,-0.2268,-0.2279,-0.2275,-0.2292,-0.2295,-0.2298,-0.2379,-0.2295,-0.2298,-0.2299,-0.2401,-0.2403,-0.2404,0,0,0,0,0,0,-0.2216,-0.2216,-0.2233,-0.2247,-0.2255,-0.2294,-0.2262,-0.2265,-0.2256,-0.2295,-0.2293,-0.2266,-0.2291,-0.2294,-0.2319,-0.2379,-0.2299,-0.2301,-0.24,-0.2402,-0.2403,-0.2537,0,0,0,0,0,0,-0.2213,-0.2213,-0.2198,-0.2244,-0.2255,-0.2276,-0.2266,-0.2269,-0.2288,-0.2282,-0.2285,-0.2284,-0.2289,-0.2315,-0.2321,-0.2381,-0.2303,-0.2398,-0.2401,-0.2403,-0.2531,-0.2544,-0.2554,0,0,0,0,0,-0.2211,-0.2215,-0.2195,-0.22,-0.2227,-0.2277,-0.2287,-0.2303,-0.2289,-0.2284,-0.2296,-0.2283,-0.2334,-0.2319,-0.2326,-0.2387,-0.2397,-0.24,-0.2403,-0.2526,-0.2541,-0.2554,0,0,0,0,0,0,-0.2229,-0.2214,-0.2192,-0.2195,-0.2221,-0.2273,-0.2298,-0.2299,-0.2307,-0.2295,-0.2307,-0.2309,-0.2347,-0.2341,-0.2324,-0.2418,-0.2361,-0.2366,-0.2453,-0.2467,-0.2478,-0.2507,-0.2305,0,0,0,0,0,-0.2219,-0.2195,-0.2209,-0.222,-0.2221,-0.2249,-0.2276,-0.2276,-0.2301,-0.2299,-0.2314,-0.2331,-0.2372,-0.2394,-0.2406,-0.2472,-0.243,-0.2509,-0.2521,-0.2531,-0.2556,-0.2543,-0.2556,-0.2414,-0.2414,-0.2413,0,0,-0.2252,-0.2233,-0.2232,-0.2221,-0.2238,-0.2282,-0.2254,-0.2282,-0.2343,-0.2304,-0.2371,-0.2362,-0.239,-0.2457,-0.2475,-0.246,-0.2541,-0.2535,-0.2544,-0.2563,-0.2547,-0.2561,-0.2574,-0.2416,-0.2415,-0.2415,0,0,-0.2293,-0.2256,-0.2237,-0.2261,-0.2273,-0.2304,-0.2304,-0.2331,-0.2349,-0.2408,-0.2405,-0.2438,-0.2483,-0.254,-0.2573,-0.2657,-0.2587,-0.2639,-0.275,-0.2737,-0.2749,-0.276,-0.2692,-0.2696,-0.2664,-0.2665,-0.2665,0,-0.2315,-0.2294,-0.2258,-0.2267,-0.2325,-0.2312,-0.2359,-0.2399,-0.2441,-0.2478,-0.2432,-0.2526,-0.2544,-0.2673,-0.2708,-0.2693,-0.2633,-0.2704,-0.2755,-0.2764,-0.2772,-0.2701,-0.2703,-0.2672,-0.2671,-0.267,-0.2669,0,-0.2352,-0.2349,-0.236,-0.2356,-0.2412,-0.2451,-0.2509,-0.2544,-0.2561,-0.2601,-0.2673,-0.2691,-0.2745,-0.2766,-0.2778,-0.2867,-0.2784,-0.2756,-0.2726,-0.2795,-0.2714,-0.2714,-0.2681,-0.2679,-0.2677,-0.2675,0,0,-0.2333,-0.2366,-0.2366,-0.2391,-0.246,-0.2505,-0.2623,-0.2713,-0.277,-0.2803,-0.288,-0.298,-0.2942,-0.2976,-0.2977,-0.2999,-0.3011,-0.2914,-0.2909,-0.2857,-0.2923,-0.2823,-0.2812,-0.2972,-0.2974,-0.2975,-0.2831,0,-0.2354,-0.2385,-0.2428,-0.2529,-0.2553,-0.2636,-0.2755,-0.2846,-0.2888,-0.2948,-0.2995,-0.3043,-0.304,-0.304,-0.3074,-0.301,-0.3019,-0.3049,-0.2855,-0.2849,-0.2762,-0.2814,-0.2632,-0.2485,-0.283,-0.283,-0.283,0,-0.2337,-0.237,-0.2458,-0.2579,-0.2604,-0.2702,-0.2857,-0.2953,-0.3061,-0.3084,-0.3143,-0.313,-0.3206,-0.315,-0.3125,-0.3126,-0.3051,-0.2997,-0.2989,-0.2859,-0.2752,-0.2477,-0.2471,-0.2828,-0.2828,-0.2828,-0.2828,0,-0.2299,-0.2379,-0.2459,-0.2511,-0.2666,-0.2756,-0.2849,-0.2984,-0.3045,-0.3147,-0.3144,-0.3222,-0.32,-0.317,-0.3074,-0.3084,-0.2976,-0.2968,-0.2813,-0.2801,-0.2595,-0.2564,-0.295,-0.295,-0.2951,-0.2951,-0.2951,0,-0.2284,-0.2334,-0.2442,-0.251,-0.2607,-0.2737,-0.2851,-0.295,-0.3055,-0.307,-0.3184,-0.3149,-0.3194,-0.3128,-0.307,-0.292,-0.2966,-0.2842,-0.2777,-0.263,-0.2606,-0.2869,-0.2862,-0.2945,-0.2947,-0.2948,-0.2949,0,-0.2201,-0.2288,-0.2381,-0.2553,-0.259,-0.2666,-0.2812,-0.2844,-0.2988,-0.2993,-0.3015,-0.3077,-0.2993,-0.3,-0.291,-0.2869,-0.277,-0.2702,-0.2507,-0.2426,-0.2602,-0.2603,-0.2536,-0.2532,-0.2528,-0.2525,-0.2523,0,-0.2161,-0.2189,-0.2363,-0.2383,-0.2458,-0.256,-0.2587,-0.2778,-0.2782,-0.2885,-0.2828,-0.2833,-0.2757,-0.2645,-0.2588,-0.2496,-0.2597,-0.2281,-0.2322,-0.2626,-0.2569,-0.2576,-0.2582,-0.2069,-0.2063,-0.2058,-0.2054,0,-0.2082,-0.2151,-0.2231,-0.2222,-0.2273,-0.2327,-0.2378,-0.2382,-0.2535,-0.257,-0.2519,-0.2501,-0.2439,-0.2287,-0.2242,-0.2162,-0.2305,-0.2177,-0.2526,-0.2223,-0.218,-0.2126,-0.2148,-0.201,-0.2014,-0.2018,-0.202,-0.2022,-0.2011,-0.2006,-0.2053,-0.2038,-0.2073,-0.2042,-0.2018,-0.2053,-0.2074,-0.2094,-0.2155,-0.212,-0.2144,-0.1992,-0.1867,-0.1811,-0.198,-0.1926,-0.1943,-0.1965,-0.1959,-0.1915,-0.1689,-0.1691,-0.1694,-0.1695,-0.1697,0,-0.1866,-0.1849,-0.1815,-0.1817,-0.1738,-0.1842,-0.1818,-0.177,-0.1715,-0.1786,-0.18,-0.1656,-0.1589,-0.162,-0.1468,-0.1447,-0.1452,-0.1387,-0.1407,-0.1451,-0.149,-0.1463,-0.1059,-0.1057,-0.1055,-0.1053,0,0,-0.1801,-0.1721,-0.1686,-0.1502,-0.1468,-0.1368,-0.1343,-0.131,-0.1339,-0.1311,-0.135,-0.1538,-0.159,-0.1338,-0.1273,-0.1141,-0.1283,-0.108,-0.1594,-0.1662,-0.1698,-0.1803,-0.181,0,0,0,0,0]},{"header":{"parameterUnit":"m.s-1","parameterCategory":2,"la1":30.2991,"la2":30.254,"lo1":-89.0895,"lo2":-89.0444,"dy":0.0017,"dx":0.0017,"nx":28,"ny":28,"refTime":"2024-03-29T09:00:00:Z","depth":"2","parameterNumber":3,"parameterNumberName":"V-component_of_CURRENTS"},"data":[0,0,0,0,0,0,0,0,0,0,0,0,0,0,0,0,0,0,0,0,0,0,0,0,0,0,0,0,0,0,0,0,0,0,0,0,0,0,0,0,0,0,0,0,0,0,0,0,0,0,0,0,0,0,0,0,0,0,-0.0271,-0.0271,0,-0.0197,-0.0197,-0.0196,-0.0103,-0.0102,-0.01,-0.0099,0.0177,0.0183,0.0189,0,0,0,0,0,0,0,0,0,0,0,0,0,-0.036,-0.0359,-0.0271,-0.0271,-0.027,-0.0198,-0.0196,-0.0195,-0.0103,-0.0102,-0.01,-0.0098,0.0175,0.0183,0.019,0,0,0,0,0,0,0,0,0,0,0,0,0,-0.0307,-0.0358,-0.0272,-0.0216,-0.021,-0.0198,-0.0196,-0.0195,-0.0104,-0.0102,-0.0099,-0.0097,0.0173,0.0182,0.0191,0.0204,0,0,0.0219,0.0222,0,0,0,0,0,0,0,0,-0.031,-0.0304,-0.0225,-0.0219,-0.0213,-0.0158,-0.0127,-0.0052,-0.0104,-0.0143,-0.0099,-0.0096,0.0082,0.0099,0.0106,0.0217,0.0229,0.0219,0.0225,0.0229,0.0231,0,0,0,0,0,0,0,-0.0314,-0.0306,-0.0241,-0.0224,-0.0217,-0.0204,-0.0193,-0.0113,-0.0039,-0.014,-0.0133,-0.0127,0.0087,0.0097,0.0114,0.0233,0.0219,0.0227,0.0233,0.0236,0.0527,0.0529,0,0,0,0,0,0,-0.0325,-0.031,-0.0244,-0.0239,-0.0258,-0.0204,-0.0192,-0.0177,-0.0044,-0.0024,-0.0128,-0.0123,0.008,0.0103,0.0124,0.0259,0.0229,0.0237,0.0242,0.0525,0.0527,0.053,0,0,0,0,0,0,-0.0327,-0.032,-0.0247,-0.0274,-0.0264,-0.0204,-0.0188,-0.0177,-0.0149,-0.0038,-0.0013,-0.011,0.0083,0.0111,0.0226,0.0267,0.0241,0.0249,0.0522,0.0526,0.0529,0.0459,0,0,0,0,0,0,-0.033,-0.0321,-0.032,-0.0275,-0.0263,-0.0248,-0.019,-0.0177,-0.015,-0.0141,-0.0014,0.0012,0.0087,0.0212,0.0235,0.0279,0.0257,0.0519,0.0524,0.0528,0.0458,0.0459,0.046,0,0,0,0,0,-0.0333,-0.0338,-0.032,-0.0312,-0.0261,-0.0249,-0.0243,-0.0193,-0.0151,-0.0156,-0.0042,0.0009,0.0257,0.022,0.0247,0.0294,0.0517,0.0522,0.0527,0.0458,0.0459,0.046,0,0,0,0,0,0,-0.0378,-0.0329,-0.0307,-0.0297,-0.028,-0.0234,-0.0229,-0.0195,-0.0117,-0.0085,0.0027,0.006,0.0177,0.0246,0.0203,0.0395,0.04,0.0411,0.0338,0.0341,0.0342,0.0328,0.0264,0,0,0,0,0,-0.0391,-0.0377,-0.0339,-0.0335,-0.0323,-0.0277,-0.0264,-0.0231,-0.0158,-0.0123,-0.0032,0.0093,0.0213,0.0282,0.0378,0.0474,0.0494,0.0529,0.053,0.053,0.0541,0.0616,0.0623,0.0547,0.0547,0.0547,0,0,-0.0417,-0.0379,-0.0379,-0.0344,-0.0318,-0.0302,-0.0262,-0.0244,-0.0204,-0.01,-0.0009,0.0089,0.0237,0.035,0.041,0.0418,0.0549,0.0537,0.0535,0.0547,0.0622,0.0629,0.0635,0.055,0.055,0.0549,0,0,-0.0455,-0.0419,-0.0422,-0.04,-0.0362,-0.0327,-0.0321,-0.0271,-0.0219,-0.0137,-0.0028,0.0095,0.0244,0.0368,0.0454,0.0522,0.0544,0.0554,0.0561,0.0633,0.0639,0.0644,0.0602,0.0605,0.0565,0.0565,0.0565,0,-0.0483,-0.0474,-0.0428,-0.0414,-0.0396,-0.0335,-0.0334,-0.0274,-0.0189,-0.013,-0.011,0.015,0.0264,0.0447,0.0481,0.0526,0.0523,0.0535,0.0629,0.0636,0.0643,0.06,0.0603,0.0563,0.0563,0.0563,0.0563,0,-0.0515,-0.0509,-0.0507,-0.0458,-0.0434,-0.0429,-0.0343,-0.0296,-0.0223,-0.0149,0.0011,0.0158,0.0319,0.0379,0.0461,0.0591,0.0551,0.0603,0.0608,0.0645,0.0598,0.0603,0.0559,0.056,0.056,0.0561,0,0,-0.0571,-0.0541,-0.0539,-0.0551,-0.0457,-0.046,-0.0359,-0.0273,-0.0216,-0.0091,-0.0002,0.0231,0.0305,0.0409,0.0522,0.0602,0.0631,0.062,0.0625,0.0545,0.0693,0.0695,0.07,0.0688,0.0691,0.0693,0.0609,0,-0.0614,-0.0636,-0.0579,-0.0598,-0.0609,-0.0506,-0.0438,-0.0333,-0.0219,-0.012,0.0084,0.021,0.0323,0.039,0.05,0.0606,0.0655,0.0643,0.0701,0.0701,0.0674,0.0713,0.0688,0.0618,0.0614,0.0615,0.0616,0,-0.0649,-0.0669,-0.0693,-0.0696,-0.0689,-0.066,-0.0554,-0.0492,-0.0287,-0.0202,-0.0009,0.0137,0.0331,0.039,0.0587,0.0564,0.0629,0.069,0.0689,0.0731,0.0718,0.0604,0.0628,0.0625,0.0624,0.0623,0.0623,0,-0.0728,-0.075,-0.0783,-0.0775,-0.0742,-0.071,-0.0674,-0.05,-0.0449,-0.024,-0.0176,0.0071,0.0177,0.0335,0.0517,0.0541,0.0662,0.0711,0.0759,0.0753,0.077,0.0765,0.0827,0.0827,0.0827,0.0828,0.0828,0,-0.0776,-0.0818,-0.0834,-0.085,-0.0902,-0.082,-0.08,-0.0712,-0.0569,-0.0502,-0.0229,-0.0137,0.0173,0.0316,0.046,0.0614,0.0624,0.0759,0.0764,0.0738,0.0731,0.0795,0.0793,0.0824,0.0825,0.0826,0.0826,0,-0.0827,-0.0835,-0.0902,-0.0916,-0.0932,-0.0956,-0.0928,-0.0903,-0.0754,-0.0654,-0.0589,-0.0308,-0.0103,0.0158,0.038,0.0522,0.0669,0.0711,0.0607,0.0607,0.0702,0.0697,0.0749,0.0749,0.0749,0.0749,0.075,0,-0.0849,-0.0884,-0.097,-0.1027,-0.1029,-0.1067,-0.1079,-0.0994,-0.0947,-0.0763,-0.072,-0.048,-0.027,0.004,0.0329,0.0564,0.0618,0.0649,0.0755,0.071,0.071,0.0705,0.07,0.0692,0.0692,0.0691,0.0691,0,-0.09,-0.092,-0.0974,-0.1099,-0.1152,-0.1216,-0.1216,-0.1209,-0.1079,-0.099,-0.083,-0.0658,-0.0306,0.0015,0.0342,0.0479,0.0629,0.065,0.0659,0.0738,0.0659,0.0657,0.0654,0.0688,0.0688,0.0688,0.0689,0.0689,-0.093,-0.0981,-0.1054,-0.1158,-0.1244,-0.1281,-0.1289,-0.1263,-0.1204,-0.1014,-0.0917,-0.0649,-0.0344,0.0164,0.0387,0.061,0.0625,0.0704,0.0704,0.0705,0.0737,0.0666,0.0693,0.0694,0.0694,0.0694,0.0694,0,-0.0958,-0.1012,-0.1119,-0.121,-0.1277,-0.1321,-0.1326,-0.1283,-0.1192,-0.1052,-0.0881,-0.0535,-0.0181,0.0125,0.0484,0.0693,0.0702,0.0718,0.0708,0.0708,0.0709,0.0743,0.07,0.0701,0.0702,0.0702,0,0,-0.0976,-0.1056,-0.1098,-0.1195,-0.1258,-0.1295,-0.1279,-0.1217,-0.1109,-0.0954,-0.0788,-0.0543,-0.0172,0.0089,0.0357,0.0544,0.057,0.0553,0.0524,0.048,0.0479,0.0674,0.0723,0,0,0,0,0]}],[{"header":{"parameterUnit":"m.s-1","parameterCategory":2,"la1":30.2991,"la2":30.254,"lo1":-89.0895,"lo2":-89.0444,"dy":0.0017,"dx":0.0017,"nx":28,"ny":28,"refTime":"2024-03-29T09:00:00:Z","depth":"4","parameterNumber":2,"parameterNumberName":"U-component_of_CURRENTS"},"data":[0,0,0,0,0,0,0,0,0,0,0,0,0,0,0,0,0,0,0,0,0,0,0,0,0,0,0,0,0,0,0,0,0,0,0,0,0,0,0,0,0,0,0,0,0,0,0,0,0,0,0,0,0,0,0,0,0,0,-0.1147,-0.1148,0,-0.1222,-0.1223,-0.1224,-0.1272,-0.1272,-0.1272,-0.1272,-0.1348,-0.135,-0.1352,0,0,0,0,0,0,0,0,0,0,0,0,0,-0.1073,-0.1074,-0.1147,-0.1148,-0.1149,-0.1221,-0.1223,-0.1224,-0.1272,-0.1272,-0.1272,-0.1272,-0.1348,-0.135,-0.1352,0,0,0,0,0,0,0,0,0,0,0,0,0,-0.1124,-0.1074,-0.1147,-0.118,-0.1183,-0.1221,-0.1223,-0.1224,-0.1272,-0.1272,-0.1272,-0.1272,-0.1347,-0.135,-0.1352,-0.1367,0,0,-0.1361,-0.1363,0,0,0,0,0,0,0,0,-0.1121,-0.1127,-0.1174,-0.1178,-0.1182,-0.1236,-0.1224,-0.1271,-0.1272,-0.1241,-0.1272,-0.1273,-0.1309,-0.1315,-0.1332,-0.1371,-0.1374,-0.1362,-0.1363,-0.1365,-0.1365,0,0,0,0,0,0,0,-0.1117,-0.1124,-0.1179,-0.1175,-0.1179,-0.12,-0.1207,-0.1234,-0.1275,-0.1243,-0.1247,-0.1251,-0.1312,-0.1329,-0.1334,-0.1375,-0.1362,-0.1364,-0.1366,-0.1367,-0.1493,-0.1495,0,0,0,0,0,0,-0.1102,-0.1121,-0.1177,-0.1181,-0.1149,-0.12,-0.1209,-0.122,-0.1275,-0.1283,-0.1251,-0.1253,-0.1324,-0.1331,-0.1337,-0.1411,-0.1365,-0.1367,-0.1369,-0.1492,-0.1494,-0.1495,0,0,0,0,0,0,-0.1101,-0.1107,-0.1174,-0.115,-0.116,-0.1201,-0.1214,-0.1221,-0.1259,-0.128,-0.1288,-0.1282,-0.1325,-0.1333,-0.1382,-0.1412,-0.1369,-0.1371,-0.149,-0.1492,-0.1494,-0.1524,0,0,0,0,0,0,-0.1098,-0.1106,-0.1115,-0.115,-0.1161,-0.1207,-0.1213,-0.1223,-0.1259,-0.1263,-0.1309,-0.1315,-0.1325,-0.1378,-0.1385,-0.1415,-0.1373,-0.1488,-0.1491,-0.1494,-0.1521,-0.1528,-0.1533,0,0,0,0,0,-0.1096,-0.1101,-0.1115,-0.1122,-0.117,-0.1207,-0.1216,-0.1246,-0.126,-0.1281,-0.1316,-0.1315,-0.1402,-0.1381,-0.1389,-0.1421,-0.1486,-0.149,-0.1493,-0.1519,-0.1526,-0.1533,0,0,0,0,0,0,-0.1075,-0.1107,-0.1123,-0.114,-0.1177,-0.1215,-0.1233,-0.1258,-0.1303,-0.1307,-0.1335,-0.1344,-0.1397,-0.1408,-0.1384,-0.1468,-0.1445,-0.145,-0.1461,-0.1468,-0.1474,-0.1469,-0.1376,0,0,0,0,0,-0.1074,-0.1086,-0.1126,-0.1141,-0.116,-0.1203,-0.1224,-0.1245,-0.1283,-0.1305,-0.1341,-0.1378,-0.1416,-0.1441,-0.147,-0.1516,-0.1524,-0.1543,-0.1549,-0.1554,-0.1557,-0.1583,-0.1591,-0.1507,-0.1507,-0.1507,0,0,-0.107,-0.1088,-0.1097,-0.1138,-0.1169,-0.1199,-0.1218,-0.125,-0.1283,-0.1304,-0.1365,-0.1398,-0.1433,-0.1485,-0.151,-0.1499,-0.1587,-0.1558,-0.1562,-0.1562,-0.1588,-0.1596,-0.1603,-0.151,-0.1509,-0.1509,0,0,-0.1062,-0.1089,-0.1099,-0.1127,-0.1167,-0.12,-0.1215,-0.1267,-0.1301,-0.1356,-0.1384,-0.1442,-0.1494,-0.1536,-0.156,-0.1618,-0.1614,-0.1625,-0.1655,-0.168,-0.1687,-0.1693,-0.1732,-0.1741,-0.1631,-0.1631,-0.1631,0,-0.1056,-0.1074,-0.1109,-0.1125,-0.115,-0.1204,-0.1228,-0.1271,-0.1335,-0.1362,-0.1376,-0.1481,-0.1522,-0.159,-0.1621,-0.1632,-0.1641,-0.1623,-0.1686,-0.1692,-0.1697,-0.1736,-0.1745,-0.1633,-0.1633,-0.1632,-0.1632,0,-0.1052,-0.1074,-0.1084,-0.1126,-0.1163,-0.1188,-0.125,-0.1301,-0.1349,-0.1381,-0.146,-0.1525,-0.159,-0.1618,-0.1643,-0.1711,-0.1704,-0.1685,-0.1663,-0.1707,-0.1746,-0.1755,-0.1635,-0.1635,-0.1634,-0.1634,0,0,-0.102,-0.1069,-0.1069,-0.1098,-0.1162,-0.1194,-0.1259,-0.1325,-0.1366,-0.1434,-0.1481,-0.1588,-0.1623,-0.1656,-0.1702,-0.174,-0.1812,-0.1735,-0.1735,-0.1765,-0.1874,-0.1739,-0.1736,-0.1791,-0.1793,-0.1794,-0.1892,0,-0.1009,-0.102,-0.1058,-0.1105,-0.1137,-0.1207,-0.1269,-0.1333,-0.1391,-0.1448,-0.152,-0.158,-0.1636,-0.1678,-0.173,-0.1798,-0.1835,-0.1788,-0.1835,-0.1837,-0.1702,-0.1741,-0.1798,-0.1899,-0.1901,-0.1902,-0.1903,0,-0.1002,-0.1011,-0.1032,-0.1114,-0.1135,-0.1174,-0.1276,-0.1335,-0.1419,-0.1462,-0.1531,-0.1572,-0.1688,-0.1693,-0.1844,-0.1807,-0.1847,-0.1882,-0.1885,-0.175,-0.1717,-0.1842,-0.192,-0.1919,-0.1917,-0.1916,-0.1915,0,-0.0963,-0.1011,-0.1023,-0.1043,-0.1132,-0.1172,-0.1236,-0.1331,-0.1382,-0.1465,-0.1499,-0.1609,-0.1691,-0.1757,-0.1874,-0.1857,-0.199,-0.1971,-0.1882,-0.1874,-0.1954,-0.1946,-0.2027,-0.2027,-0.2027,-0.2027,-0.2026,0,-0.0938,-0.0963,-0.1006,-0.1008,-0.106,-0.1145,-0.121,-0.1286,-0.1371,-0.1422,-0.1508,-0.1568,-0.1707,-0.1796,-0.1867,-0.192,-0.1999,-0.1892,-0.1884,-0.1968,-0.1961,-0.1962,-0.1953,-0.203,-0.203,-0.2029,-0.2028,0,-0.09,-0.0924,-0.0954,-0.1013,-0.1042,-0.1081,-0.1185,-0.1224,-0.1331,-0.1398,-0.1426,-0.1566,-0.1694,-0.1801,-0.1928,-0.1917,-0.1967,-0.1948,-0.2055,-0.2051,-0.1837,-0.183,-0.1861,-0.1857,-0.1853,-0.185,-0.1848,0,-0.0884,-0.0882,-0.0922,-0.0939,-0.0965,-0.1032,-0.1077,-0.1189,-0.1226,-0.1397,-0.1411,-0.1552,-0.164,-0.1734,-0.1846,-0.1934,-0.1913,-0.1922,-0.1856,-0.1829,-0.1818,-0.1816,-0.1813,-0.1842,-0.1842,-0.1841,-0.184,0,-0.0843,-0.0846,-0.0843,-0.0864,-0.09,-0.0947,-0.1015,-0.1035,-0.1178,-0.127,-0.1371,-0.1441,-0.1564,-0.1671,-0.1736,-0.1797,-0.1908,-0.1885,-0.1892,-0.183,-0.1807,-0.1799,-0.18,-0.1828,-0.1829,-0.1831,-0.1831,0,-0.0801,-0.0778,-0.0762,-0.0785,-0.0831,-0.086,-0.091,-0.0972,-0.1033,-0.1212,-0.125,-0.1419,-0.1552,-0.16,-0.1674,-0.1706,-0.1686,-0.164,-0.1659,-0.1674,-0.1564,-0.1503,-0.1426,0,0,0,0,0,-0.075,-0.0699,-0.0696,-0.0704,-0.0751,-0.0781,-0.0868,-0.0923,-0.1049,-0.1083,-0.1165,-0.1271,-0.1385,-0.147,-0.1471,-0.1586,-0.1686,-0.1578,-0.1639,-0.176,-0.1774,-0.1661,0,0,0,0,0,0,-0.0704,-0.0676,-0.065,-0.0639,-0.0643,-0.0684,-0.0742,-0.0831,-0.0858,-0.1,-0.1071,-0.1175,-0.1303,-0.1369,-0.1439,-0.1463,-0.1474,-0.1674,-0.167,-0.1752,-0.1765,-0.1776,-0.1665,0,0,0,0,0]},{"header":{"parameterUnit":"m.s-1","parameterCategory":2,"la1":30.2991,"la2":30.254,"lo1":-89.0895,"lo2":-89.0444,"dy":0.0017,"dx":0.0017,"nx":28,"ny":28,"refTime":"2024-03-29T09:00:00:Z","depth":"4","parameterNumber":3,"parameterNumberName":"V-component_of_CURRENTS"},"data":[0,0,0,0,0,0,0,0,0,0,0,0,0,0,0,0,0,0,0,0,0,0,0,0,0,0,0,0,0,0,0,0,0,0,0,0,0,0,0,0,0,0,0,0,0,0,0,0,0,0,0,0,0,0,0,0,0,0,-0.0394,-0.0394,0,-0.0392,-0.0391,-0.0391,-0.0369,-0.0369,-0.0369,-0.0369,-0.0295,-0.0293,-0.0291,0,0,0,0,0,0,0,0,0,0,0,0,0,-0.0297,-0.0299,-0.0394,-0.0394,-0.0395,-0.0392,-0.0391,-0.0391,-0.0369,-0.0369,-0.0369,-0.0369,-0.0295,-0.0293,-0.0291,0,0,0,0,0,0,0,0,0,0,0,0,0,-0.0317,-0.03,-0.0394,-0.0388,-0.0388,-0.0392,-0.0391,-0.0391,-0.0369,-0.0369,-0.0369,-0.0369,-0.0296,-0.0293,-0.029,-0.0273,0,0,-0.0281,-0.028,0,0,0,0,0,0,0,0,-0.0316,-0.0319,-0.0388,-0.0388,-0.0388,-0.0386,-0.0331,-0.035,-0.0369,-0.037,-0.0369,-0.0369,-0.0322,-0.0317,-0.031,-0.0269,-0.0266,-0.0281,-0.0279,-0.0278,-0.0277,0,0,0,0,0,0,0,-0.0314,-0.0319,-0.0387,-0.0389,-0.0389,-0.0358,-0.0361,-0.0333,-0.034,-0.037,-0.037,-0.0379,-0.0321,-0.0313,-0.0308,-0.0265,-0.0281,-0.0279,-0.0277,-0.0276,-0.0258,-0.0259,0,0,0,0,0,0,-0.0331,-0.0318,-0.0387,-0.0388,-0.0358,-0.0361,-0.0363,-0.0382,-0.0342,-0.0339,-0.0379,-0.0378,-0.0318,-0.0311,-0.0305,-0.0335,-0.0278,-0.0275,-0.0274,-0.0257,-0.0258,-0.026,0,0,0,0,0,0,-0.0329,-0.0338,-0.0388,-0.0357,-0.0362,-0.0364,-0.0384,-0.0382,-0.0378,-0.0351,-0.0345,-0.0378,-0.0317,-0.0309,-0.0301,-0.033,-0.0274,-0.0271,-0.0255,-0.0257,-0.0259,-0.0361,0,0,0,0,0,0,-0.0326,-0.0337,-0.0354,-0.0358,-0.0364,-0.0405,-0.0384,-0.0382,-0.0387,-0.0385,-0.0348,-0.0341,-0.0317,-0.0305,-0.0298,-0.0325,-0.0269,-0.0254,-0.0256,-0.0258,-0.0356,-0.0366,-0.0374,0,0,0,0,0,-0.0323,-0.035,-0.0355,-0.0363,-0.0389,-0.0407,-0.0406,-0.0402,-0.0387,-0.0395,-0.0375,-0.0343,-0.0316,-0.0304,-0.0295,-0.0322,-0.0252,-0.0255,-0.0258,-0.0351,-0.0364,-0.0374,0,0,0,0,0,0,-0.0313,-0.0352,-0.0356,-0.0393,-0.0406,-0.0405,-0.0415,-0.0406,-0.0394,-0.039,-0.0353,-0.0346,-0.0352,-0.032,-0.0308,-0.0324,-0.0281,-0.0282,-0.0355,-0.0366,-0.0375,-0.0392,-0.0267,0,0,0,0,0,-0.0322,-0.0357,-0.0378,-0.0407,-0.0416,-0.0413,-0.0418,-0.0416,-0.0411,-0.0405,-0.0384,-0.0363,-0.0355,-0.0348,-0.0331,-0.0333,-0.0263,-0.0345,-0.0355,-0.0363,-0.0371,-0.0318,-0.0323,-0.0269,-0.0269,-0.0269,0,0,-0.0327,-0.0354,-0.0372,-0.0408,-0.0414,-0.0442,-0.0414,-0.0431,-0.0456,-0.0397,-0.0416,-0.0391,-0.0363,-0.0376,-0.0376,-0.0353,-0.0331,-0.0367,-0.0374,-0.0378,-0.0321,-0.0326,-0.033,-0.0271,-0.0271,-0.0271,0,0,-0.036,-0.0377,-0.0418,-0.0432,-0.0458,-0.0462,-0.047,-0.0476,-0.0481,-0.0496,-0.0467,-0.0462,-0.0443,-0.0438,-0.043,-0.0477,-0.0383,-0.0471,-0.0532,-0.048,-0.0484,-0.0486,-0.0354,-0.0344,-0.0476,-0.0476,-0.0476,0,-0.0362,-0.042,-0.0429,-0.0467,-0.0487,-0.0476,-0.0514,-0.0522,-0.0526,-0.0535,-0.0517,-0.0501,-0.0478,-0.0495,-0.0523,-0.05,-0.0425,-0.0492,-0.0492,-0.0493,-0.0494,-0.0358,-0.0346,-0.0482,-0.0481,-0.048,-0.048,0,-0.0422,-0.0466,-0.0487,-0.054,-0.0561,-0.0588,-0.0607,-0.0623,-0.0623,-0.0626,-0.064,-0.0608,-0.0599,-0.0597,-0.0578,-0.0585,-0.0509,-0.0509,-0.0463,-0.0505,-0.0359,-0.0344,-0.0489,-0.0487,-0.0486,-0.0484,0,0,-0.0431,-0.0516,-0.0524,-0.0561,-0.06,-0.0623,-0.0671,-0.0709,-0.0733,-0.0732,-0.0754,-0.0756,-0.0726,-0.0716,-0.0684,-0.0649,-0.058,-0.0592,-0.0587,-0.0458,-0.0397,-0.0382,-0.0362,-0.058,-0.0579,-0.0579,-0.0273,0,-0.0474,-0.0564,-0.0595,-0.0671,-0.0713,-0.0724,-0.077,-0.0798,-0.0806,-0.0821,-0.0798,-0.0797,-0.0776,-0.0763,-0.0736,-0.0624,-0.0554,-0.0658,-0.0377,-0.0367,-0.0349,-0.0352,-0.0577,-0.0262,-0.0258,-0.0256,-0.0254,0,-0.0522,-0.0578,-0.0667,-0.0745,-0.0763,-0.0804,-0.086,-0.0899,-0.0917,-0.0916,-0.0913,-0.0878,-0.0838,-0.0811,-0.0637,-0.07,-0.0563,-0.0463,-0.0449,-0.0397,-0.0329,-0.0221,-0.0226,-0.0228,-0.023,-0.0232,-0.0234,0,-0.0533,-0.0626,-0.0703,-0.0727,-0.081,-0.0851,-0.089,-0.0927,-0.095,-0.0964,-0.0948,-0.0913,-0.0854,-0.0733,-0.0547,-0.0582,-0.0314,-0.0328,-0.0164,-0.0155,-0.0212,-0.0213,-0.0189,-0.0189,-0.019,-0.0191,-0.0192,0,-0.0569,-0.0627,-0.0713,-0.0756,-0.0831,-0.0876,-0.0942,-0.0974,-0.0995,-0.1001,-0.099,-0.095,-0.0836,-0.068,-0.053,-0.0289,-0.0286,-0.0162,-0.0097,-0.0253,-0.0263,-0.0197,-0.0202,-0.0179,-0.0182,-0.0184,-0.0186,0,-0.0575,-0.0637,-0.072,-0.0814,-0.0846,-0.0894,-0.0968,-0.0999,-0.1014,-0.1012,-0.1006,-0.0938,-0.0744,-0.0576,-0.0327,-0.0236,-0.0025,0.0071,-0.004,0.0014,0.0111,0.0097,0.0278,0.0281,0.0283,0.0285,0.0286,0,-0.0593,-0.064,-0.075,-0.0794,-0.0842,-0.0915,-0.0961,-0.1008,-0.1021,-0.0986,-0.0965,-0.0807,-0.0734,-0.0343,-0.0204,0.0112,0.013,0.0257,0.0096,0.0103,0.015,0.0132,0.0116,0.029,0.029,0.0291,0.0292,0,-0.0612,-0.065,-0.0711,-0.0802,-0.0864,-0.0926,-0.0982,-0.0982,-0.1006,-0.1011,-0.0894,-0.0747,-0.0519,-0.0311,-0.0057,0.0147,0.0156,0.028,0.0275,0.0125,0.012,0.016,0.0141,0.0299,0.0298,0.0298,0.0297,0,-0.0609,-0.0638,-0.072,-0.0792,-0.0868,-0.0911,-0.0948,-0.0939,-0.0947,-0.0902,-0.085,-0.0658,-0.0562,-0.0282,-0.0055,0.014,0.0156,0.0178,0.0178,0.0172,-0.0001,-0.0033,0.0165,0,0,0,0,0,-0.0599,-0.0633,-0.0706,-0.0784,-0.0856,-0.0903,-0.0949,-0.0971,-0.0972,-0.088,-0.0867,-0.0661,-0.0371,-0.026,-0.0053,-0.0028,0.0185,0.0214,0.021,0.0342,0.0333,0.014,0,0,0,0,0,0,-0.0592,-0.0654,-0.0693,-0.0764,-0.0811,-0.0884,-0.091,-0.0916,-0.0863,-0.0843,-0.0679,-0.0629,-0.0335,-0.0472,-0.0052,0.0001,0.0019,0.0342,0.0346,0.0347,0.0339,0.0332,0.0131,0,0,0,0,0]}]]